Meteo Giornale » Osservazioni meteo Stati Uniti (USA) » Hurlburt Fld
ore: 20:55 - Osservazioni Meteo Hurlburt Fld
Lat. 30° 25' N Lon. 86° 41' W Alt. 12 metri s.l.m.
29 °C
Sereno
Temp. 24 Ore
24 °C
32 °C
Nord
0 Km/h
Dew point 25 °C
Umidità 79 %
Visibilità 10 Km
Il sole sorge alle ore 06:22
Il sole tramonta alle ore 19:10
| Data e Ora | Cielo e Fenomeni | T °C | DP °C | Um. % | Pres. hPa | Vis. km | Vento km/h | |
|---|---|---|---|---|---|---|---|---|
| Oggi h: 20:55 | Sereno | 29 | 25 | 79 | 1016 | 10 | N 0 | |
| Oggi h: 19:55 | Sereno | 29 | 25 | 79 | 1016 | 10 | N 5.5 | |
| Oggi h: 18:55 | Sereno | 30 | 25 | 74 | 1015 | 10 | S 9.3 | |
| Oggi h: 17:55 | Sereno | 30 | 25 | 74 | 1016 | 10 | S/SE 11.1 | |
| Oggi h: 16:55 | Sereno | 31 | 25 | 70 | 1016 | 10 | S/SE 13 | |
| Oggi h: 15:55 | Sereno | 32 | 25 | 66 | 1016 | 10 | S/SE 13 | |
| Oggi h: 14:55 | Poco Nuvoloso | 32 | 25 | 66 | 1016 | 10 | SE 11.1 | |
| Oggi h: 13:55 | Poco Nuvoloso | 32 | 25 | 66 | 1017 | 10 | SE 18.5 | |
| Oggi h: 12:55 | Sereno | 32 | 26 | 70 | 1017 | 10 | SE 16.7 | |
| Oggi h: 11:55 | Sereno | 32 | 24 | 62 | 1017 | 10 | E 13 | |
| Oggi h: 10:55 | Sereno | 31 | 25 | 70 | 1018 | 10 | E/NE 14.8 | |
| Oggi h: 09:55 | Sereno | 30 | 25 | 74 | 1018 | 10 | E/NE 9.3 | |
| Oggi h: 08:55 | Sereno | 29 | 25 | 79 | 1018 | 10 | NE 11.1 | |
| Oggi h: 07:55 | Sereno | 26 | 24 | 88 | 1017 | 10 | N/NE 11.1 | |
| Oggi h: 06:55 | Sereno | 24 | 23 | 94 | 1017 | 10 | N 0 | |
| Oggi h: 05:55 | Sereno | 24 | 23 | 94 | 1016 | 10 | N 5.5 | |
| Oggi h: 04:55 | Sereno | 25 | 23 | 88 | 1016 | 10 | N 5.5 | |
| Oggi h: 03:55 | Sereno | 25 | 23 | 88 | 1015 | 10 | NE 7.4 | |
| Oggi h: 02:55 | Sereno | 26 | 23 | 83 | 1016 | 10 | NE 9.3 | |
| Oggi h: 01:55 | Sereno | 25 | 23 | 88 | 1016 | 10 | N 5.5 | |
| Oggi h: 00:55 | Sereno | 25 | 24 | 94 | 1016 | 10 | N 0 | |
| Ieri h: 23:55 | Sereno | 26 | 24 | 88 | 1016 | 10 | N 0 | |
| Ieri h: 22:55 | Poco Nuvoloso | 27 | 24 | 83 | 1017 | 10 | N 0 | |
| Ieri h: 21:55 | Sereno | 27 | 24 | 83 | 1016 | 10 | N 0 | |



